Wind_Speed
2 4 6 11 9 4 6 5 6 3 2 4 5 9 18 24 22 21 23 27 28 26 24 25 23 20 21 28 28 27 23 20 15 16 17 16 13 10 9 9 7 7 6 7
2 6 9 7 3 4 5 4 5 2 6 4 6 8 16 22 27 25 25 25 30 28 26 27 25 25 23 26 30 31 27 23 18 16 15 14 12 11 12 13 8 6 8 11
8 6 9 8 5 6 4 5 3 3 5 4 6 1 9 13 17 22 25 28 30 30 31 29 29 29 27 28 29 31 29 25 22 20 17 18 18 18 16 13 10 7 9 10
7 6 7 5 9 8 8 11 8 8 4 3 4 4 7 13 18 18 27 28 32 32 32 31 32 32 31 29 29 29 29 27 25 23 21 21 21 21 17 14 14 12 11 9
9 9 12 8 10 9 10 8 10 5 5 4 3 1 5 15 16 19 27 32 33 36 35 34 34 34 32 30 31 31 29 28 27 26 25 24 23 22 20 19 18 14 13 15
9 4 9 11 10 12 6 2 3 5 4 2 6 7 5 8 20 19 28 33 36 37 36 35 30 29 30 31 31 31 31 30 29 29 28 27 24 23 23 20 18 14 15 15
2 13 3 3 2 6 4 7 3 4 1 7 6 7 14 10 10 18 24 33 37 39 37 36 35 34 32 32 33 34 33 33 32 31 30 28 26 25 26 24 21 19 17 16
9 7 12 6 9 8 8 9 6 6 3 5 4 6 10 19 25 31 33 38 36 39 39 38 35 34 33 32 32 33 35 35 35 32 31 28 27 28 27 25 22 21 18 16
8 7 2 9 5 11 5 5 10 2 5 3 5 7 6 6 14 19 25 24 31 38 42 40 37 35 34 35 35 35 35 33 32 31 29 29 27 27 25 22 20 20 18 17
6 2 6 4 7 6 10 7 3 2 6 7 5 5 5 3 11 13 16 27 34 39 41 40 39 37 35 34 35 35 33 31 30 29 29 28 27 26 23 20 19 17 16 18
6 4 4 7 8 16 4 3 4 5 6 6 2 6 6 10 12 18 21 31 37 42 44 42 39 38 35 34 35 35 34 32 32 30 28 27 25 22 20 19 17 14 13 12
8 5 4 10 1 5 10 10 8 5 5 3 4 7 4 10 14 21 22 28 43 45 45 43 41 38 38 38 36 36 35 35 33 31 29 26 23 20 19 18 16 14 14 15
8 5 1 2 5 2 6 6 6 5 4 6 7 7 3 4 7 21 24 32 36 48 45 43 43 44 43 41 39 38 36 36 34 33 31 27 22 18 16 16 15 15 13 13
9 5 12 8 6 6 6 7 7 8 5 6 6 8 6 7 11 16 29 35 41 44 52 50 47 47 47 46 45 43 40 38 37 36 33 28 22 19 16 17 17 16 14 14
9 8 7 18 6 2 6 7 10 8 8 8 8 9 10 8 10 17 35 41 34 38 47 53 51 50 49 47 45 45 43 40 37 34 33 28 23 21 19 20 18 17 18 14
8 6 9 9 18 21 9 8 8 11 6 5 7 9 9 5 6 7 25 30 34 41 49 55 57 53 51 49 47 46 44 42 37 33 31 27 26 26 23 22 20 19 16 15
5 2 7 19 7 6 11 22 10 7 6 10 9 11 4 6 7 13 25 34 43 46 50 52 55 57 55 52 49 46 44 42 38 36 31 28 28 29 26 24 22 21 17 17
8 4 3 8 7 10 13 9 10 9 7 10 6 11 9 13 20 15 21 42 47 50 51 52 53 53 54 52 49 47 44 41 39 39 35 31 30 31 28 25 23 20 18 15
18 5 4 7 13 3 5 7 12 8 12 9 12 8 10 22 8 15 23 31 47 45 43 40 37 38 47 51 48 44 43 40 39 39 35 33 32 33 29 26 24 21 19 16
16 14 4 1 9 16 8 5 13 6 16 8 13 12 9 10 4 8 26 31 37 38 36 40 39 40 42 46 46 44 42 40 39 38 33 32 33 32 28 26 24 20 18 14
5 4 15 12 9 7 8 8 14 9 8 7 18 22 20 8 15 27 19 31 39 41 37 38 40 37 38 40 41 40 39 40 38 34 31 31 32 29 26 24 22 22 19 15
7 8 6 6 4 5 11 8 16 8 14 13 11 9 20 35 36 31 31 34 41 41 36 38 36 34 33 34 35 34 36 37 35 31 29 31 31 29 26 24 24 22 19 14
1 3 4 12 13 6 19 19 17 27 21 19 7 8 15 30 37 35 24 24 35 37 39 36 33 31 29 31 33 34 33 32 31 30 31 31 30 28 27 25 24 22 17 15
5 4 2 1 4 7 11 17 26 28 22 16 13 13 16 21 34 37 36 32 34 39 41 39 36 32 30 31 31 29 28 29 29 32 33 31 29 27 26 24 22 19 16 15
5 7 8 6 8 9 5 29 23 18 16 17 18 19 20 19 17 22 27 31 34 37 39 36 33 32 33 33 32 30 29 28 31 32 32 30 29 29 29 27 22 17 15 13
6 5 4 4 14 9 11 3 22 17 17 16 20 23 30 29 28 27 25 27 30 33 31 32 32 34 35 34 33 31 29 26 31 33 32 28 30 31 29 26 22 19 16 13
Wind_Direction
202 113 181 205 199 185 190 143 174 223 187 124 177 157 182 190 200 203 213 205 210 214 216 213 211 212 216 212 211 210 209 209 215 212 218 224 233 240 225 226 247 292 328 338
49 207 223 207 184 183 221 164 204 237 153 100 174 191 185 190 203 205 211 212 213 215 217 215 211 210 210 207 211 208 213 208 209 212 223 232 237 231 225 233 253 282 313 322
168 220 163 176 203 187 227 187 164 237 126 51 122 69 189 214 208 215 218 219 222 216 214 216 215 211 210 210 211 210 205 207 211 218 226 232 237 237 238 247 261 269 290 306
211 189 184 187 214 157 203 200 176 154 91 204 170 270 211 198 209 209 216 215 222 222 221 219 218 215 214 212 212 211 211 213 217 224 229 236 243 245 252 260 266 268 269 276
224 173 169 210 213 164 229 167 180 138 128 128 199 355 272 178 208 213 212 216 217 223 219 218 217 219 217 216 216 217 217 218 220 226 230 238 248 253 258 260 266 268 250 265
210 185 167 196 210 196 224 190 108 57 94 339 190 152 251 186 210 207 213 211 217 221 221 221 218 215 216 217 217 215 216 219 223 228 234 240 249 254 259 260 261 262 258 268
158 237 233 124 96 313 158 76 5 355 69 228 143 164 234 216 201 199 202 207 210 219 221 220 218 215 212 211 211 214 216 219 224 229 235 240 248 256 259 260 260 262 267 269
187 224 198 178 172 179 214 149 162 195 196 264 110 222 250 219 205 197 202 206 201 210 218 219 215 213 208 208 208 210 215 220 224 228 233 236 244 252 255 259 262 264 266 272
156 240 265 178 149 148 209 182 204 115 43 294 211 276 295 279 177 171 190 191 197 206 215 217 215 214 213 211 211 212 214 216 221 224 230 235 241 247 250 255 259 260 258 265
186 163 221 174 138 228 150 173 89 5 203 243 284 279 249 148 163 164 180 190 199 208 213 215 215 213 215 215 216 219 222 221 224 226 230 235 239 244 248 251 252 260 267 266
144 121 267 150 196 193 148 181 85 128 137 183 181 269 224 195 188 180 190 196 198 205 212 214 213 214 213 217 218 220 221 221 223 225 229 233 236 239 242 243 247 253 259 255
202 164 208 203 198 181 183 187 160 151 242 250 153 262 213 192 202 182 196 197 203 209 211 211 209 213 215 216 218 219 221 221 221 223 225 228 232 235 237 238 237 241 247 255
176 210 90 71 337 135 167 179 135 119 100 200 143 254 265 125 178 200 198 201 201 209 213 215 215 215 216 216 218 220 221 222 223 224 224 225 224 227 234 229 223 227 236 247
255 155 200 207 217 139 170 164 170 154 146 186 210 250 245 195 204 217 211 209 203 203 210 216 218 218 221 220 220 222 225 228 228 226 226 225 224 225 229 210 214 224 240 245
157 205 189 217 219 146 173 178 164 177 189 175 221 203 243 245 206 224 217 207 199 201 205 215 220 221 223 225 226 227 227 229 231 232 230 225 220 218 214 209 216 229 237 239
337 235 168 221 218 236 243 242 189 214 168 206 166 236 214 224 230 217 210 199 196 201 210 214 218 223 224 225 227 229 230 231 229 230 228 222 216 214 213 214 216 226 226 238
291 322 171 223 174 199 241 235 224 208 176 179 188 224 171 212 202 209 206 197 199 208 213 217 220 222 225 227 227 229 231 231 229 231 228 221 216 213 213 216 220 220 225 234
257 7 257 210 109 212 245 180 187 199 215 202 263 215 195 211 236 251 218 206 208 215 221 224 227 227 228 232 234 234 235 235 230 231 228 223 217 215 213 215 220 218 227 234
211 186 270 183 207 297 238 180 180 168 254 204 209 232 208 226 212 252 223 220 217 217 219 222 221 229 231 231 236 236 234 233 232 230 226 221 218 215 212 213 215 217 226 218
195 198 193 217 208 215 213 197 180 116 238 226 194 210 208 141 157 250 247 222 217 215 210 217 219 225 230 232 233 235 233 230 230 229 224 218 216 213 212 213 211 219 215 219
144 158 205 229 214 264 219 183 152 149 222 184 200 214 200 175 213 233 215 213 212 210 209 212 215 218 224 228 231 231 230 227 229 224 218 213 208 209 211 212 212 213 211 220
163 158 181 206 188 232 180 160 190 202 234 198 230 268 216 220 220 229 238 220 209 210 206 208 209 206 212 217 221 225 224 226 222 217 209 202 201 201 207 213 206 206 213 219
149 132 238 186 218 242 185 189 191 199 217 231 223 285 276 219 219 215 219 204 208 212 204 203 201 200 207 215 218 218 217 216 212 202 194 195 196 199 207 207 204 207 212 220
281 3 316 319 219 196 175 161 183 192 196 206 233 249 266 225 225 221 220 211 207 203 199 198 198 200 203 208 211 212 213 209 203 199 195 193 196 201 202 201 208 211 218 221
266 338 318 282 16 358 236 144 148 153 173 193 210 215 211 191 185 202 201 201 200 197 192 194 200 204 206 205 204 202 204 207 203 201 198 192 194 198 195 200 205 211 218 221
341 335 356 283 305 262 281 329 138 140 164 190 200 212 213 208 194 181 176 179 184 186 192 199 205 211 208 205 201 199 201 207 206 200 197 201 195 194 200 204 204 205 203 215
Height
1487 1496 1505 1498 1496 1497 1500 1506 1513 1508 1504 1511 1517 1521 1521 1525 1529 1531 1531 1532 1533 1535 1539 1543 1546 1549 1552 1554 1558 1562 1564 1566 1568 1569 1571 1572 1574 1576 1577 1577 1577 1577 1577 1575
1491 1500 1488 1488 1492 1495 1498 1504 1512 1505 1501 1508 1517 1518 1519 1521 1520 1527 1528 1529 1530 1533 1537 1539 1543 1546 1548 1551 1554 1558 1561 1565 1566 1568 1570 1571 1573 1574 1575 1575 1576 1576 1575 1575
1492 1488 1484 1488 1491 1499 1500 1507 1508 1509 1503 1508 1514 1524 1524 1522 1523 1526 1526 1527 1529 1531 1532 1535 1539 1542 1545 1548 1550 1554 1558 1562 1564 1567 1568 1569 1570 1571 1573 1573 1574 1574 1574 1574
1484 1479 1484 1487 1489 1491 1512 1491 1497 1505 1514 1530 1508 1541 1523 1515 1516 1519 1520 1521 1523 1526 1529 1531 1534 1538 1540 1544 1548 1552 1555 1558 1561 1564 1566 1567 1568 1569 1571 1572 1572 1572 1573 1573
1479 1475 1482 1487 1480 1482 1490 1484 1491 1498 1512 1515 1517 1531 1512 1505 1513 1509 1510 1512 1516 1519 1523 1525 1529 1533 1537 1541 1544 1548 1552 1555 1557 1560 1561 1563 1565 1567 1568 1569 1569 1570 1570 1571
1469 1466 1469 1470 1468 1472 1472 1483 1490 1503 1517 1540 1511 1523 1512 1507 1489 1494 1499 1505 1508 1513 1517 1521 1525 1530 1533 1537 1540 1544 1547 1550 1553 1555 1558 1559 1561 1563 1565 1566 1567 1568 1569 1569
1469 1466 1464 1463 1472 1466 1477 1499 1531 1538 1543 1539 1509 1519 1489 1477 1475 1478 1487 1493 1501 1507 1512 1516 1521 1524 1528 1531 1534 1538 1542 1544 1548 1551 1553 1555 1557 1559 1561 1563 1565 1566 1567 1567
1484 1487 1461 1460 1471 1482 1482 1495 1526 1545 1544 1525 1506 1519 1483 1456 1465 1473 1479 1483 1493 1500 1505 1510 1514 1518 1522 1526 1530 1533 1536 1540 1544 1547 1549 1551 1553 1555 1557 1559 1562 1563 1565 1565
1481 1477 1449 1452 1456 1465 1482 1497 1478 1506 1518 1530 1512 1486 1464 1454 1460 1469 1477 1484 1488 1494 1498 1503 1509 1513 1517 1522 1524 1528 1532 1536 1538 1542 1545 1547 1550 1552 1554 1557 1559 1560 1562 1563
1454 1473 1451 1446 1454 1459 1467 1470 1502 1516 1532 1534 1511 1498 1487 1468 1465 1467 1474 1477 1482 1488 1493 1498 1503 1507 1512 1516 1521 1525 1528 1531 1534 1538 1540 1543 1546 1550 1553 1555 1556 1558 1559 1560
1446 1459 1456 1449 1454 1459 1470 1478 1487 1494 1510 1520 1522 1501 1461 1461 1458 1460 1465 1469 1475 1481 1486 1491 1497 1502 1508 1512 1516 1519 1522 1526 1528 1532 1536 1539 1543 1547 1550 1552 1554 1556 1557 1557
1440 1458 1467 1455 1439 1440 1448 1463 1471 1500 1505 1511 1502 1494 1447 1448 1451 1455 1462 1468 1471 1476 1481 1487 1493 1498 1502 1506 1510 1513 1517 1520 1522 1527 1532 1536 1540 1544 1547 1549 1552 1553 1554 1554
1436 1455 1475 1458 1452 1443 1450 1454 1462 1475 1488 1501 1503 1490 1447 1449 1453 1454 1456 1461 1468 1473 1480 1485 1490 1492 1496 1500 1504 1507 1511 1513 1519 1523 1527 1532 1538 1541 1544 1546 1548 1549 1550 1552
1432 1445 1445 1462 1444 1443 1450 1447 1454 1461 1492 1489 1486 1465 1451 1452 1452 1451 1452 1454 1458 1466 1473 1476 1482 1486 1490 1494 1498 1502 1505 1509 1513 1518 1523 1529 1535 1538 1540 1542 1544 1546 1548 1549
1426 1440 1440 1431 1437 1434 1436 1439 1449 1457 1459 1469 1460 1465 1446 1440 1442 1441 1441 1444 1454 1460 1466 1471 1475 1479 1483 1488 1493 1497 1501 1505 1509 1515 1519 1526 1531 1534 1536 1538 1540 1543 1545 1546
1430 1433 1431 1439 1429 1431 1441 1436 1439 1440 1449 1445 1447 1450 1428 1430 1432 1433 1434 1442 1447 1451 1455 1459 1466 1472 1476 1480 1485 1490 1495 1500 1506 1510 1515 1521 1526 1529 1532 1535 1537 1539 1542 1544
1446 1436 1436 1435 1432 1437 1447 1424 1430 1431 1433 1433 1450 1435 1424 1427 1428 1428 1431 1436 1438 1442 1448 1453 1459 1464 1468 1473 1478 1483 1488 1495 1502 1505 1511 1517 1521 1525 1529 1531 1534 1537 1539 1541
1441 1443 1438 1432 1440 1461 1412 1408 1413 1421 1420 1421 1422 1418 1418 1418 1418 1421 1423 1429 1431 1436 1441 1446 1452 1458 1463 1468 1473 1480 1485 1490 1496 1499 1506 1512 1516 1521 1525 1528 1532 1534 1537 1538
1429 1441 1444 1436 1431 1422 1409 1406 1408 1418 1418 1410 1416 1413 1411 1413 1418 1417 1421 1423 1426 1429 1434 1440 1445 1450 1455 1462 1468 1473 1478 1484 1489 1493 1499 1506 1511 1515 1520 1525 1529 1532 1534 1536
1414 1423 1437 1435 1432 1432 1411 1390 1391 1400 1422 1400 1403 1405 1408 1411 1428 1416 1413 1418 1422 1426 1430 1435 1441 1446 1451 1457 1462 1467 1472 1477 1481 1486 1493 1500 1505 1511 1517 1522 1526 1530 1532 1534
1426 1428 1429 1424 1413 1412 1386 1384 1388 1424 1422 1392 1395 1397 1400 1407 1406 1405 1407 1411 1416 1420 1424 1431 1436 1441 1447 1452 1458 1463 1467 1471 1476 1482 1489 1495 1502 1509 1515 1519 1524 1527 1529 1531
1405 1417 1421 1417 1418 1411 1372 1380 1392 1383 1382 1388 1391 1389 1391 1395 1397 1401 1404 1406 1411 1416 1421 1428 1433 1438 1444 1449 1454 1459 1464 1468 1473 1478 1485 1492 1499 1506 1512 1516 1520 1524 1526 1528
1400 1396 1398 1387 1380 1366 1363 1363 1368 1375 1378 1380 1384 1384 1384 1386 1390 1395 1398 1402 1407 1411 1416 1424 1430 1435 1441 1446 1451 1457 1462 1468 1474 1478 1481 1489 1497 1503 1508 1512 1517 1520 1523 1524
1397 1387 1391 1380 1366 1363 1361 1362 1364 1369 1374 1377 1380 1382 1382 1381 1385 1388 1392 1396 1400 1405 1411 1418 1426 1431 1437 1443 1449 1456 1462 1468 1475 1479 1482 1484 1493 1499 1505 1509 1513 1516 1518 1520
1406 1395 1393 1382 1369 1365 1362 1357 1362 1365 1368 1372 1375 1379 1381 1383 1383 1386 1389 1391 1396 1403 1410 1417 1424 1429 1434 1440 1447 1454 1461 1468 1474 1479 1483 1483 1488 1494 1500 1505 1509 1513 1516 1518
1409 1405 1406 1397 1383 1386 1372 1366 1361 1363 1365 1368 1370 1373 1378 1381 1383 1386 1389 1392 1397 1403 1410 1416 1421 1427 1432 1438 1446 1453 1460 1466 1471 1477 1482 1483 1484 1491 1497 1502 1506 1509 1513 1516